Location: McNierney
(34.1937°N, 106.9061°W)
Time: 20:17:56
(UTC+00:00)

Cosmos 1892 Rocket - Pass Details

Date: 14 March 2026
Orbit: 600 x 625 km, 82.5° (Epoch: 18 April)

Event Time Altitude Azimuth Distance (km) Brightness Sun altitude
Rises 10:41:45 0° 6° (N) 2,901 7.3 -32.8°
Reaches altitude 10° 10:44:14 10° 18° (NNE) 1,994 6.6 -32.3°
Maximum altitude 10:48:04 28° 78° (ENE) 1,168 5.5 -31.6°
Drops below altitude 10° 10:51:52 10° 138° (SE) 1,989 6.4 -30.8°
Sets 10:54:20 0° 150° (SSE) 2,892 7.1 -30.3°
